Location: Gaast
(52.9002°N, 5.8891°E)
Time: 09:45:22
(UTC+00:00)

CZ-4C R/B - Pass Details

Date: 18 November 2025
Orbit: 487 x 1493 km, 63.4° (Epoch: 11 December)

Event Time Altitude Azimuth Distance (km) Brightness Sun altitude
Rises 16:55:13 0° 260° (W) 2,925 7.1 -11.5°
Reaches altitude 10° 16:57:24 10° 268° (W) 2,133 5.7 -11.8°
Maximum altitude 17:01:59 40° 339° (NNW) 1,187 3.0 -12.5°
Enters shadow 17:07:09 13° 45° (NE) 2,491 4.1 -13.2°
